Time,TemperatureF,DewpointF,PressureIn,WindDirection,WindDirectionDegrees,WindSpeedMPH,WindSpeedGustMPH,Humidity,HourlyPrecipIn,Conditions,Clouds,dailyrainin,SoftwareType,DateUTC
2013-06-14 00:02:00,68.0,51.0,29.94,NW,317,0.0,-999.0,55,-99.99,,,-99.99,,2013-06-14 07:02:00,
2013-06-14 00:12:00,67.0,51.0,29.93,NW,317,0.0,-999.0,57,-99.99,,,-99.99,,2013-06-14 07:12:00,
2013-06-14 00:22:00,67.0,51.0,29.93,NW,317,0.0,-999.0,57,-99.99,,,-99.99,,2013-06-14 07:22:00,
2013-06-14 00:33:00,66.0,51.0,29.93,NW,317,0.0,-999.0,58,-99.99,,,-99.99,,2013-06-14 07:33:00,
2013-06-14 00:43:00,65.0,51.0,29.93,NW,317,0.0,-999.0,61,-99.99,,,-99.99,,2013-06-14 07:43:00,
2013-06-14 00:53:00,65.0,51.0,29.93,NW,317,0.0,-999.0,61,-99.99,,,-99.99,,2013-06-14 07:53:00,
2013-06-14 01:01:00,64.0,51.0,29.93,NW,317,0.0,-999.0,62,-99.99,,,-99.99,,2013-06-14 08:01:00,
2013-06-14 01:12:00,64.0,52.0,29.92,NW,317,0.0,-999.0,65,-99.99,,,-99.99,,2013-06-14 08:12:00,
2013-06-14 01:22:00,63.0,52.0,29.92,NW,317,0.0,-999.0,67,-99.99,,,-99.99,,2013-06-14 08:22:00,
2013-06-14 01:33:00,63.0,52.0,29.92,NW,317,0.0,-999.0,67,-99.99,,,-99.99,,2013-06-14 08:33:00,
2013-06-14 01:43:00,63.0,52.0,29.91,NW,317,0.0,-999.0,67,-99.99,,,-99.99,,2013-06-14 08:43:00,
2013-06-14 01:52:00,63.0,52.0,29.91,NW,317,0.0,-999.0,67,-99.99,,,-99.99,,2013-06-14 08:52:00,
2013-06-14 02:01:00,63.0,52.0,29.91,NW,317,0.0,-999.0,68,-99.99,,,-99.99,,2013-06-14 09:01:00,
2013-06-14 02:11:00,63.0,51.0,29.91,NW,317,0.0,-999.0,66,-99.99,,,-99.99,,2013-06-14 09:11:00,
2013-06-14 02:22:00,63.0,51.0,29.91,NW,317,0.0,-999.0,66,-99.99,,,-99.99,,2013-06-14 09:22:00,
2013-06-14 02:33:00,63.0,51.0,29.90,NW,317,0.0,-999.0,65,-99.99,,,-99.99,,2013-06-14 09:33:00,
2013-06-14 02:43:00,63.0,51.0,29.90,NW,317,0.0,-999.0,66,-99.99,,,-99.99,,2013-06-14 09:43:00,
2013-06-14 02:52:00,63.0,51.0,29.90,NW,317,0.0,-999.0,66,-99.99,,,-99.99,,2013-06-14 09:52:00,
2013-06-14 03:01:00,63.0,51.0,29.90,NW,317,0.0,-999.0,66,-99.99,,,-99.99,,2013-06-14 10:01:00,
2013-06-14 03:11:00,62.0,51.0,29.89,NW,317,0.0,-999.0,66,-99.99,,,-99.99,,2013-06-14 10:11:00,
2013-06-14 03:21:00,62.0,51.0,29.89,NW,306,0.0,-999.0,66,-99.99,,,-99.99,,2013-06-14 10:21:00,
2013-06-14 03:34:00,62.0,51.0,29.89,NW,306,0.0,-999.0,66,-99.99,,,-99.99,,2013-06-14 10:34:00,
2013-06-14 03:43:00,62.0,51.0,29.89,NW,323,0.0,-999.0,67,-99.99,,,-99.99,,2013-06-14 10:43:00,
2013-06-14 03:52:00,62.0,51.0,29.89,WNW,302,1.0,-999.0,68,-99.99,,,-99.99,,2013-06-14 10:52:00,
2013-06-14 04:02:00,62.0,51.0,29.89,WNW,302,1.0,-999.0,68,-99.99,,,-99.99,,2013-06-14 11:02:00,
2013-06-14 04:11:00,63.0,51.0,29.89,NNW,328,1.0,-999.0,64,-99.99,,,-99.99,,2013-06-14 11:11:00,
2013-06-14 04:22:00,63.0,51.0,29.89,NNW,328,1.0,-999.0,64,-99.99,,,-99.99,,2013-06-14 11:22:00,
2013-06-14 04:32:00,63.0,48.0,29.89,NNE,22,2.0,-999.0,59,-99.99,,,-99.99,,2013-06-14 11:32:00,
2013-06-14 04:43:00,63.0,48.0,29.89,NW,317,1.0,-999.0,59,-99.99,,,-99.99,,2013-06-14 11:43:00,
2013-06-14 04:52:00,63.0,48.0,29.89,NW,317,1.0,-999.0,59,-99.99,,,-99.99,,2013-06-14 11:52:00,
2013-06-14 05:01:00,63.0,49.0,29.89,NNW,330,1.0,-999.0,61,-99.99,,,-99.99,,2013-06-14 12:01:00,
2013-06-14 05:11:00,63.0,50.0,29.89,WNW,296,0.0,-999.0,62,-99.99,,,-99.99,,2013-06-14 12:11:00,
2013-06-14 05:22:00,63.0,50.0,29.89,WNW,296,0.0,-999.0,62,-99.99,,,-99.99,,2013-06-14 12:22:00,
2013-06-14 05:32:00,62.0,50.0,29.89,NW,316,0.0,-999.0,64,-99.99,,,-99.99,,2013-06-14 12:32:00,
2013-06-14 05:43:00,61.0,49.0,29.89,NW,317,1.0,-999.0,65,-99.99,,,-99.99,,2013-06-14 12:43:00,
2013-06-14 05:52:00,61.0,49.0,29.89,NW,317,1.0,-999.0,65,-99.99,,,-99.99,,2013-06-14 12:52:00,
2013-06-14 06:01:00,61.0,50.0,29.89,NW,316,0.0,-999.0,66,-99.99,,,-99.99,,2013-06-14 13:01:00,
2013-06-14 06:11:00,60.0,49.0,29.90,WNW,300,0.0,-999.0,67,-99.99,,,-99.99,,2013-06-14 13:11:00,
2013-06-14 06:22:00,60.0,49.0,29.90,NW,325,0.0,-999.0,67,-99.99,,,-99.99,,2013-06-14 13:22:00,
2013-06-14 06:33:00,60.0,49.0,29.90,NW,325,0.0,-999.0,67,-99.99,,,-99.99,,2013-06-14 13:33:00,
2013-06-14 06:43:00,60.0,49.0,29.90,NW,325,0.0,-999.0,67,-99.99,,,-99.99,,2013-06-14 13:43:00,
2013-06-14 06:52:00,60.0,49.0,29.90,NW,325,0.0,-999.0,66,-99.99,,,-99.99,,2013-06-14 13:52:00,
2013-06-14 07:02:00,60.0,49.0,29.90,NW,325,0.0,-999.0,66,-99.99,,,-99.99,,2013-06-14 14:02:00,
2013-06-14 07:11:00,60.0,48.0,29.90,NW,316,0.0,-999.0,65,-99.99,,,-99.99,,2013-06-14 14:11:00,
2013-06-14 07:22:00,62.0,48.0,29.90,WNW,296,1.0,-999.0,61,-99.99,,,-99.99,,2013-06-14 14:22:00,
2013-06-14 07:33:00,62.0,48.0,29.90,WNW,296,1.0,-999.0,61,-99.99,,,-99.99,,2013-06-14 14:33:00,
2013-06-14 07:43:00,63.0,47.0,29.90,NW,313,2.0,-999.0,56,-99.99,,,-99.99,,2013-06-14 14:43:00,
2013-06-14 07:52:00,63.0,47.0,29.90,NW,313,2.0,-999.0,56,-99.99,,,-99.99,,2013-06-14 14:52:00,
2013-06-14 08:01:00,65.0,47.0,29.90,WNW,302,2.0,-999.0,53,-99.99,,,-99.99,,2013-06-14 15:01:00,
2013-06-14 08:11:00,66.0,46.0,29.90,WNW,284,2.0,-999.0,49,-99.99,,,-99.99,,2013-06-14 15:11:00,
2013-06-14 08:22:00,67.0,46.0,29.89,WNW,300,3.0,-999.0,47,-99.99,,,-99.99,,2013-06-14 15:22:00,
2013-06-14 08:33:00,67.0,46.0,29.89,WNW,300,3.0,-999.0,47,-99.99,,,-99.99,,2013-06-14 15:33:00,
2013-06-14 08:43:00,68.0,44.0,29.89,NNE,13,5.0,-999.0,42,-99.99,,,-99.99,,2013-06-14 15:43:00,
2013-06-14 08:52:00,68.0,44.0,29.89,NNE,13,5.0,-999.0,42,-99.99,,,-99.99,,2013-06-14 15:52:00,
2013-06-14 09:01:00,69.0,45.0,29.90,North,350,6.0,-999.0,42,-99.99,,,-99.99,,2013-06-14 16:01:00,
2013-06-14 09:11:00,70.0,45.0,29.90,NNW,331,3.0,-999.0,41,-99.99,,,-99.99,,2013-06-14 16:11:00,
2013-06-14 09:22:00,71.0,43.0,29.90,WNW,286,5.0,-999.0,37,-99.99,,,-99.99,,2013-06-14 16:22:00,
2013-06-14 09:32:00,71.0,43.0,29.90,WNW,286,5.0,-999.0,37,-99.99,,,-99.99,,2013-06-14 16:32:00,
2013-06-14 09:43:00,72.0,42.0,29.90,WNW,287,5.0,-999.0,34,-99.99,,,-99.99,,2013-06-14 16:43:00,
2013-06-14 09:52:00,72.0,42.0,29.90,WNW,287,5.0,-999.0,34,-99.99,,,-99.99,,2013-06-14 16:52:00,
2013-06-14 10:02:00,72.0,43.0,29.90,NW,313,5.0,-999.0,35,-99.99,,,-99.99,,2013-06-14 17:02:00,
2013-06-14 10:11:00,73.0,42.0,29.89,NW,325,5.0,-999.0,33,-99.99,,,-99.99,,2013-06-14 17:11:00,
2013-06-14 10:22:00,74.0,44.0,29.89,NNE,12,3.0,-999.0,34,-99.99,,,-99.99,,2013-06-14 17:22:00,
2013-06-14 10:34:00,74.0,44.0,29.89,NNE,12,3.0,-999.0,34,-99.99,,,-99.99,,2013-06-14 17:34:00,
2013-06-14 10:43:00,76.0,45.0,29.89,NW,306,2.0,-999.0,33,-99.99,,,-99.99,,2013-06-14 17:43:00,
2013-06-14 10:53:00,76.0,45.0,29.89,NW,306,2.0,-999.0,33,-99.99,,,-99.99,,2013-06-14 17:53:00,
2013-06-14 11:02:00,77.0,45.0,29.88,North,360,3.0,-999.0,32,-99.99,,,-99.99,,2013-06-14 18:02:00,
2013-06-14 11:11:00,78.0,43.0,29.88,North,5,4.0,-999.0,29,-99.99,,,-99.99,,2013-06-14 18:11:00,
2013-06-14 11:21:00,78.0,43.0,29.88,North,5,4.0,-999.0,29,-99.99,,,-99.99,,2013-06-14 18:21:00,
2013-06-14 11:32:00,78.0,43.0,29.88,North,5,4.0,-999.0,29,-99.99,,,-99.99,,2013-06-14 18:32:00,
2013-06-14 11:42:00,79.0,45.0,29.88,West,275,3.0,-999.0,30,-99.99,,,-99.99,,2013-06-14 18:42:00,
2013-06-14 11:52:00,79.0,45.0,29.88,West,275,3.0,-999.0,30,-99.99,,,-99.99,,2013-06-14 18:52:00,
2013-06-14 12:01:00,79.0,42.0,29.88,NNW,345,3.0,-999.0,27,-99.99,,,-99.99,,2013-06-14 19:01:00,
2013-06-14 12:11:00,80.0,45.0,29.88,WNW,292,3.0,-999.0,29,-99.99,,,-99.99,,2013-06-14 19:11:00,
2013-06-14 12:21:00,80.0,45.0,29.88,WNW,292,3.0,-999.0,29,-99.99,,,-99.99,,2013-06-14 19:21:00,
2013-06-14 12:32:00,81.0,47.0,29.87,WNW,285,3.0,-999.0,31,-99.99,,,-99.99,,2013-06-14 19:32:00,
2013-06-14 12:43:00,82.0,47.0,29.87,NW,318,2.0,-999.0,30,-99.99,,,-99.99,,2013-06-14 19:43:00,
2013-06-14 12:53:00,82.0,47.0,29.87,NW,318,2.0,-999.0,30,-99.99,,,-99.99,,2013-06-14 19:53:00,
2013-06-14 13:01:00,82.0,47.0,29.87,North,351,2.0,-999.0,30,-99.99,,,-99.99,,2013-06-14 20:01:00,
2013-06-14 13:11:00,82.0,46.0,29.86,WNW,300,3.0,-999.0,28,-99.99,,,-99.99,,2013-06-14 20:11:00,
2013-06-14 13:21:00,82.0,46.0,29.86,NW,316,3.0,-999.0,28,-99.99,,,-99.99,,2013-06-14 20:21:00,
2013-06-14 13:33:00,82.0,46.0,29.86,NW,316,3.0,-999.0,28,-99.99,,,-99.99,,2013-06-14 20:33:00,
2013-06-14 13:43:00,83.0,47.0,29.86,WNW,284,3.0,-999.0,28,-99.99,,,-99.99,,2013-06-14 20:43:00,
2013-06-14 13:53:00,83.0,47.0,29.86,WNW,284,3.0,-999.0,28,-99.99,,,-99.99,,2013-06-14 20:53:00,
2013-06-14 14:01:00,83.0,47.0,29.85,West,275,1.0,-999.0,29,-99.99,,,-99.99,,2013-06-14 21:01:00,
2013-06-14 14:11:00,84.0,45.0,29.85,NW,315,1.0,-999.0,26,-99.99,,,-99.99,,2013-06-14 21:11:00,
2013-06-14 14:22:00,85.0,43.0,29.85,NNW,336,3.0,-999.0,23,-99.99,,,-99.99,,2013-06-14 21:22:00,
2013-06-14 14:34:00,85.0,43.0,29.85,NNW,336,3.0,-999.0,23,-99.99,,,-99.99,,2013-06-14 21:34:00,
2013-06-14 14:42:00,85.0,44.0,29.84,NW,305,3.0,-999.0,24,-99.99,,,-99.99,,2013-06-14 21:42:00,
2013-06-14 14:52:00,85.0,44.0,29.84,NW,305,3.0,-999.0,24,-99.99,,,-99.99,,2013-06-14 21:52:00,
2013-06-14 15:01:00,86.0,43.0,29.83,WNW,297,2.0,-999.0,22,-99.99,,,-99.99,,2013-06-14 22:01:00,
2013-06-14 15:11:00,86.0,41.0,29.83,WNW,303,2.0,-999.0,21,-99.99,,,-99.99,,2013-06-14 22:11:00,
2013-06-14 15:22:00,86.0,41.0,29.83,NW,325,2.0,-999.0,21,-99.99,,,-99.99,,2013-06-14 22:22:00,
2013-06-14 15:33:00,86.0,41.0,29.83,NW,325,2.0,-999.0,21,-99.99,,,-99.99,,2013-06-14 22:33:00,
2013-06-14 15:43:00,86.0,40.0,29.82,WNW,287,3.0,-999.0,20,-99.99,,,-99.99,,2013-06-14 22:43:00,
2013-06-14 15:52:00,86.0,40.0,29.82,WNW,287,3.0,-999.0,20,-99.99,,,-99.99,,2013-06-14 22:52:00,
2013-06-14 16:01:00,86.0,39.0,29.81,NW,323,3.0,-999.0,19,-99.99,,,-99.99,,2013-06-14 23:01:00,
2013-06-14 16:11:00,88.0,43.0,29.81,NW,326,1.0,-999.0,21,-99.99,,,-99.99,,2013-06-14 23:11:00,
2013-06-14 16:22:00,88.0,43.0,29.81,NW,326,1.0,-999.0,21,-99.99,,,-99.99,,2013-06-14 23:22:00,
2013-06-14 16:32:00,88.0,41.0,29.80,NNW,327,1.0,-999.0,19,-99.99,,,-99.99,,2013-06-14 23:32:00,
2013-06-14 16:43:00,89.0,41.0,29.80,North,355,2.0,-999.0,19,-99.99,,,-99.99,,2013-06-14 23:43:00,
2013-06-14 16:52:00,89.0,41.0,29.80,North,355,2.0,-999.0,19,-99.99,,,-99.99,,2013-06-14 23:52:00,
2013-06-14 17:01:00,89.0,41.0,29.79,ENE,75,2.0,-999.0,19,-99.99,,,-99.99,,2013-06-15 00:01:00,
2013-06-14 17:11:00,89.0,38.0,29.79,NNE,19,2.0,-999.0,17,-99.99,,,-99.99,,2013-06-15 00:11:00,
2013-06-14 17:22:00,89.0,38.0,29.78,WNW,296,2.0,-999.0,17,-99.99,,,-99.99,,2013-06-15 00:22:00,
2013-06-14 17:33:00,89.0,38.0,29.78,WNW,296,2.0,-999.0,17,-99.99,,,-99.99,,2013-06-15 00:33:00,
2013-06-14 17:43:00,90.0,36.0,29.78,NW,312,2.0,-999.0,15,-99.99,,,-99.99,,2013-06-15 00:43:00,
2013-06-14 17:52:00,90.0,36.0,29.78,NW,312,2.0,-999.0,15,-99.99,,,-99.99,,2013-06-15 00:52:00,
2013-06-14 18:01:00,89.0,32.0,29.77,WNW,300,1.0,-999.0,13,-99.99,,,-99.99,,2013-06-15 01:01:00,
2013-06-14 18:11:00,89.0,32.0,29.77,WNW,302,1.0,-999.0,13,-99.99,,,-99.99,,2013-06-15 01:11:00,
2013-06-14 18:22:00,89.0,32.0,29.77,WNW,302,1.0,-999.0,13,-99.99,,,-99.99,,2013-06-15 01:22:00,
2013-06-14 18:33:00,88.0,33.0,29.76,NNW,348,1.0,-999.0,14,-99.99,,,-99.99,,2013-06-15 01:33:00,
2013-06-14 18:42:00,88.0,33.0,29.76,NNW,348,1.0,-999.0,14,-99.99,,,-99.99,,2013-06-15 01:42:00,
2013-06-14 18:54:00,88.0,33.0,29.76,NW,319,1.0,-999.0,14,-99.99,,,-99.99,,2013-06-15 01:54:00,
2013-06-14 19:02:00,87.0,37.0,29.76,NW,319,0.0,-999.0,17,-99.99,,,-99.99,,2013-06-15 02:02:00,
2013-06-14 19:11:00,87.0,37.0,29.76,NW,319,0.0,-999.0,17,-99.99,,,-99.99,,2013-06-15 02:11:00,
2013-06-14 19:22:00,87.0,35.0,29.76,NW,319,0.0,-999.0,16,-99.99,,,-99.99,,2013-06-15 02:22:00,
2013-06-14 19:33:00,87.0,35.0,29.76,NW,319,0.0,-999.0,16,-99.99,,,-99.99,,2013-06-15 02:33:00,
2013-06-14 19:43:00,86.0,39.0,29.76,NW,319,0.0,-999.0,19,-99.99,,,-99.99,,2013-06-15 02:43:00,
2013-06-14 19:53:00,86.0,41.0,29.76,NW,319,0.0,-999.0,21,-99.99,,,-99.99,,2013-06-15 02:53:00,
2013-06-14 20:01:00,86.0,41.0,29.76,NW,319,0.0,-999.0,21,-99.99,,,-99.99,,2013-06-15 03:01:00,
2013-06-14 21:21:00,79.0,48.0,29.77,South,190,0.0,-999.0,34,-99.99,,,-99.99,,2013-06-15 04:21:00,
2013-06-14 21:33:00,79.0,48.0,29.77,South,190,0.0,-999.0,34,-99.99,,,-99.99,,2013-06-15 04:33:00,
2013-06-14 21:43:00,78.0,48.0,29.77,South,190,0.0,-999.0,35,-99.99,,,-99.99,,2013-06-15 04:43:00,
2013-06-14 21:53:00,78.0,48.0,29.77,South,190,0.0,-999.0,35,-99.99,,,-99.99,,2013-06-15 04:53:00,
2013-06-14 22:02:00,77.0,47.0,29.77,South,190,0.0,-999.0,35,-99.99,,,-99.99,,2013-06-15 05:02:00,
2013-06-14 22:12:00,76.0,48.0,29.78,South,190,0.0,-999.0,37,-99.99,,,-99.99,,2013-06-15 05:12:00,
2013-06-14 22:22:00,75.0,48.0,29.78,South,190,0.0,-999.0,39,-99.99,,,-99.99,,2013-06-15 05:22:00,
2013-06-14 22:34:00,75.0,48.0,29.78,South,190,0.0,-999.0,39,-99.99,,,-99.99,,2013-06-15 05:34:00,
2013-06-14 22:42:00,74.0,48.0,29.78,South,190,0.0,-999.0,40,-99.99,,,-99.99,,2013-06-15 05:42:00,
2013-06-14 22:52:00,74.0,48.0,29.78,South,190,0.0,-999.0,40,-99.99,,,-99.99,,2013-06-15 05:52:00,
2013-06-14 23:02:00,73.0,49.0,29.78,South,190,0.0,-999.0,42,-99.99,,,-99.99,,2013-06-15 06:02:00,
2013-06-14 23:12:00,72.0,49.0,29.78,South,190,0.0,-999.0,45,-99.99,,,-99.99,,2013-06-15 06:12:00,
2013-06-14 23:24:00,71.0,50.0,29.78,South,190,0.0,-999.0,47,-99.99,,,-99.99,,2013-06-15 06:24:00,
2013-06-14 23:33:00,71.0,50.0,29.78,South,190,0.0,-999.0,47,-99.99,,,-99.99,,2013-06-15 06:33:00,
2013-06-14 23:43:00,69.0,49.0,29.78,South,190,0.0,-999.0,49,-99.99,,,-99.99,,2013-06-15 06:43:00,
2013-06-14 23:52:00,69.0,49.0,29.78,South,190,0.0,-999.0,49,-99.99,,,-99.99,,2013-06-15 06:52:00,